Temp
19 20 21 21 21 21 21 21 22 23 24 24 25 25 25 27 28 27 27 32 32 31 31 33 33 33 32 31 30 28 27 29 30 30 32 31 30 30 30 29 29 28 25 25 23
18 20 20 21 21 21 21 22 23 23 23 24 25 25 25 26 26 25 32 32 31 31 32 31 30 29 30 32 30 28 26 30 31 32 32 31 31 30 29 29 27 24 25 23 22
19 20 20 20 21 21 21 23 23 24 24 24 25 25 25 26 26 31 32 31 31 31 32 31 30 31 32 31 31 29 29 31 31 32 33 31 32 31 28 28 26 24 24 23 22
18 19 20 20 20 21 22 23 24 24 25 25 25 25 26 25 30 32 32 32 32 32 31 31 30 32 30 32 31 32 31 31 32 31 31 32 31 30 30 30 28 25 24 23 23
18 19 19 20 20 21 22 23 24 24 25 25 25 25 26 26 29 32 32 32 32 31 30 30 31 31 32 31 31 31 32 32 32 32 31 31 31 32 30 28 27 25 24 24 23
17 18 19 20 20 21 22 23 24 25 25 26 25 25 24 29 32 32 32 32 32 31 31 30 32 32 31 31 31 32 31 31 32 33 32 32 32 33 29 27 26 25 24 24 24
16 18 19 20 20 22 22 24 25 25 26 26 26 25 23 27 32 31 32 32 32 31 30 32 32 32 31 31 30 31 32 31 33 33 34 31 31 30 28 28 26 26 25 25 24
16 17 18 19 20 21 23 24 25 26 27 26 25 24 23 31 30 31 32 32 32 32 31 33 32 31 31 31 29 29 29 30 32 33 34 34 30 32 27 27 26 27 26 25 24
16 17 18 19 20 22 24 25 26 26 26 25 24 23 25 30 30 32 32 31 32 32 32 32 31 27 28 28 27 26 30 31 30 32 33 32 31 31 27 28 26 27 26 26 25
16 17 18 19 21 22 25 26 24 24 23 22 22 25 28 30 31 32 32 32 31 30 30 29 24 26 24 26 28 31 30 30 29 31 33 33 32 29 27 27 27 26 26 26 25
16 17 18 19 21 23 25 25 20 22 23 25 26 26 26 30 31 31 31 31 31 28 28 27 26 28 30 29 29 30 29 29 29 31 32 32 32 32 27 27 27 26 25 25 26
16 17 18 19 21 22 23 19 20 20 19 22 22 24 26 28 29 30 32 30 30 29 29 26 27 28 29 29 30 29 29 29 29 31 32 31 32 31 27 28 28 27 25 26 24
16 17 18 20 21 22 21 21 20 20 20 22 24 25 27 27 28 28 30 30 30 29 28 27 30 29 30 30 31 30 30 31 31 29 30 30 29 29 29 26 28 27 26 26 25
16 17 18 20 20 19 21 22 22 21 19 24 25 26 27 27 30 30 31 30 30 28 27 28 29 31 31 30 29 31 30 32 32 29 29 27 27 27 25 25 25 25 26 26 24
16 17 18 19 18 17 22 23 23 22 23 28 28 29 27 29 30 30 31 31 29 29 28 29 31 31 30 32 31 31 31 31 29 27 28 27 26 26 25 26 25 25 25 23 19
17 17 18 17 18 22 22 23 23 21 23 26 29 28 28 29 30 29 30 31 29 29 29 28 30 31 31 33 32 29 29 25 22 23 25 27 26 26 26 25 25 25 24 22 21
17 18 18 17 19 21 21 20 20 21 24 27 28 28 27 28 29 30 29 29 27 26 28 29 30 31 32 32 31 27 25 24 26 23 25 24 25 25 25 26 26 24 23 23 21
18 19 18 19 21 21 21 19 22 23 23 24 27 26 27 27 28 28 28 27 28 27 24 26 28 31 32 32 30 29 26 23 28 25 25 24 28 27 25 24 25 25 24 22 21
18 17 17 19 20 19 17 18 20 21 25 25 25 28 27 28 29 28 26 25 27 26 27 26 28 30 31 32 31 29 28 25 21 21 24 23 26 27 24 24 24 23 23 23 22
15 15 17 18 19 19 17 18 20 21 24 25 26 26 27 27 27 26 25 27 28 26 27 28 28 29 31 30 29 30 26 27 22 27 28 24 25 25 26 24 23 24 23 23 22
14 14 17 18 19 15 17 16 20 21 22 25 25 25 26 27 25 25 26 28 28 26 27 25 27 29 29 30 28 28 26 21 21 21 23 24 25 23 25 23 22 23 23 22 22
12 16 17 17 15 9 15 18 20 23 24 25 24 24 26 27 27 24 26 27 27 25 27 26 24 26 28 29 28 29 27 24 23 26 20 22 24 24 23 23 22 22 22 22 21
10 10 17 18 16 14 15 19 21 23 23 25 24 25 26 26 26 27 26 29 27 26 25 25 23 24 26 27 28 29 26 22 19 19 22 24 25 24 22 23 22 22 21 21 21
10 15 14 11 11 17 19 19 20 22 22 23 23 25 25 26 24 26 26 28 26 26 24 24 21 24 25 27 26 29 28 24 24 23 22 23 27 26 24 22 22 22 22 21 21
9 12 12 15 15 16 17 18 19 20 22 22 23 23 25 25 25 25 25 24 27 23 24 24 25 25 26 26 28 28 28 26 27 25 27 27 24 25 23 21 22 21 20 22 21
10 11 10 12 12 16 15 18 19 20 20 22 22 24 23 24 24 26 24 25 25 25 24 21 23 26 27 28 28 28 28 27 27 25 26 26 24 22 18 20 22 21 21 21 20
9 10 10 13 14 16 16 18 19 18 21 22 22 22 23 24 23 24 23 21 23 25 23 22 22 23 25 25 28 27 27 26 23 22 24 25 25 19 20 22 22 22 21 20 19
Height
807 806 804 801 799 796 794 790 788 786 782 779 775 772 768 765 762 760 760 758 756 754 753 751 749 747 746 751 753 759 796 805 795 793 782 771 779 773 770 777 775 778 780 779 786
807 804 803 801 799 796 794 789 787 786 782 779 775 772 767 763 760 759 757 757 757 756 753 751 753 750 756 757 759 774 802 789 773 769 774 769 771 773 780 781 783 784 780 782 787
807 804 802 800 798 796 793 789 786 785 781 778 775 771 766 762 762 757 756 756 756 756 754 753 753 752 760 758 762 772 789 771 769 764 760 767 769 766 780 788 778 782 782 785 789
807 803 801 799 797 794 790 786 785 783 780 777 774 770 766 764 784 756 756 756 756 755 755 753 753 760 769 770 761 776 764 764 761 761 763 767 763 774 772 769 761 769 775 784 789
805 803 801 798 794 791 789 786 784 781 779 776 774 770 766 768 763 757 757 757 756 756 756 755 759 760 772 768 766 771 764 758 757 756 760 761 766 770 772 764 764 773 780 783 786
806 803 799 796 792 790 786 785 782 780 777 775 774 771 770 777 757 757 757 758 757 757 756 755 757 756 764 767 772 764 764 761 755 755 757 763 766 764 769 765 771 776 779 783 787
805 801 798 795 791 788 785 783 781 778 775 774 773 772 772 767 757 757 757 758 758 758 758 756 755 757 759 769 762 764 773 765 758 757 757 757 777 776 764 767 773 776 780 781 784
804 801 798 794 790 785 783 781 777 773 773 772 772 772 772 757 757 756 757 758 758 758 757 756 755 757 761 760 771 780 783 799 764 757 755 760 795 764 762 767 774 774 777 779 780
804 801 797 793 788 784 780 777 774 770 770 771 772 772 771 757 756 755 756 757 757 757 756 757 757 769 769 786 801 801 809 798 788 760 761 766 781 760 762 767 774 772 774 775 778
802 799 795 791 788 783 778 773 771 771 772 773 773 777 761 760 755 753 754 756 758 757 759 763 775 787 793 800 825 807 807 800 801 774 764 770 775 767 766 767 771 774 773 774 776
802 798 795 791 786 781 775 772 777 779 773 771 770 770 763 757 754 753 753 756 758 766 783 776 793 800 787 786 789 793 801 806 790 771 772 774 773 768 769 769 770 770 771 772 774
801 798 794 789 785 781 779 782 789 792 790 765 765 765 759 759 765 754 754 762 767 785 779 794 802 784 779 782 786 793 799 800 785 773 773 779 776 769 771 765 762 766 769 772 776
800 796 791 788 784 783 783 786 787 785 793 770 760 759 755 757 763 760 755 760 771 784 785 799 783 774 778 782 789 790 795 791 794 784 779 782 793 782 772 771 761 761 766 768 772
799 794 791 787 788 785 784 784 782 782 811 781 765 753 751 751 761 747 749 758 769 784 787 788 773 775 779 784 784 795 777 777 783 798 817 798 837 799 790 780 773 773 770 777 786
796 793 790 789 788 786 784 782 780 783 834 765 758 745 747 755 751 751 747 753 775 776 782 787 777 777 783 775 772 786 771 781 790 807 808 815 831 807 790 787 786 778 777 780 785
794 791 789 788 786 784 783 781 782 819 830 776 755 758 761 754 752 751 752 750 757 772 773 778 763 766 769 760 764 771 784 803 817 824 843 820 829 821 804 799 789 779 778 780 782
791 788 786 785 783 783 782 782 819 831 783 777 770 761 766 768 761 756 767 773 788 803 798 782 774 760 756 771 769 783 810 849 842 856 852 824 828 814 795 787 780 780 779 778 781
786 783 781 781 781 783 783 800 820 800 796 773 767 766 773 764 764 765 772 785 773 781 804 807 809 771 756 766 783 788 802 844 846 862 847 825 823 807 787 781 774 772 772 777 780
782 780 779 778 779 783 792 821 813 799 780 779 773 771 772 762 762 767 778 784 774 774 797 806 797 762 757 756 764 790 805 802 844 851 849 841 812 790 786 784 780 783 781 781 779
782 780 780 779 780 784 801 812 799 786 778 774 784 774 779 773 774 777 782 766 767 764 762 780 798 770 760 758 767 774 786 817 834 843 843 845 833 822 794 790 786 783 782 780 776
783 784 782 781 783 791 811 811 793 779 778 778 780 780 774 772 776 781 777 759 754 762 761 778 788 785 770 775 786 788 800 819 827 841 856 856 837 796 789 788 793 786 781 780 778
785 793 785 785 798 816 807 798 785 778 772 773 774 776 774 768 770 780 774 763 745 755 772 770 791 803 789 766 766 769 786 802 831 829 851 847 830 782 784 779 781 783 778 781 780
796 797 787 787 807 809 801 793 785 780 777 774 776 769 765 770 777 764 763 742 745 751 765 769 797 817 802 787 771 778 784 801 815 826 839 839 826 781 783 781 778 781 784 782 783
797 799 795 794 803 799 797 795 790 774 777 772 772 766 768 770 769 768 762 746 746 747 748 753 794 798 816 795 783 786 782 793 797 823 832 827 804 786 782 781 779 780 781 783 783
800 806 806 804 802 800 799 796 793 791 775 771 771 772 769 775 772 770 762 759 748 753 755 761 784 785 780 777 774 777 782 785 787 798 804 799 808 786 779 780 780 782 785 783 789
806 808 807 807 806 800 801 794 791 787 784 774 775 765 767 772 769 769 767 762 762 754 760 768 788 776 784 772 772 781 778 781 782 792 790 793 799 779 781 780 779 785 784 783 786
807 808 809 807 805 802 800 793 788 786 771 766 765 768 768 763 759 758 758 764 762 759 765 772 783 790 801 785 779 797 785 783 792 793 791 801 786 787 782 778 778 777 779 778 783
Wind_Speed
14 13 14 14 15 15 17 18 18 19 19 20 21 22 21 20 18 7 4 2 3 9 13 10 4 12 4 3 3 3 4 1 4 4 3 4 4 4 3 5 1 1 5 7 26
15 14 15 15 16 17 18 17 17 19 20 20 21 22 23 22 8 4 2 3 6 7 7 8 5 8 3 3 2 4 4 6 4 3 3 8 7 10 4 4 2 4 11 26 26
15 15 16 17 18 19 19 18 18 19 19 20 21 21 24 14 3 3 3 5 5 3 2 5 4 1 3 2 1 2 3 1 3 4 5 7 7 6 9 5 7 10 15 17 22
17 17 18 19 20 21 21 19 18 19 19 20 20 21 19 4 1 2 3 2 1 1 3 4 3 3 3 3 3 3 5 4 4 2 4 5 6 4 9 5 9 17 19 16 15
17 18 19 20 21 22 21 20 19 19 18 19 19 19 7 4 5 5 2 2 1 4 4 4 4 1 2 2 5 1 3 3 3 7 5 6 9 5 8 1 14 15 16 16 14
19 19 20 22 23 24 23 21 20 19 18 17 14 14 4 2 4 4 2 0 1 3 5 2 2 2 3 2 1 4 6 8 4 3 3 7 4 6 2 10 14 17 16 14 13
20 20 21 22 24 24 25 22 21 19 17 13 9 7 2 10 5 4 2 2 3 2 3 3 6 3 2 4 3 2 6 6 2 4 3 7 3 8 7 12 15 15 12 13 13
21 22 22 23 24 25 24 22 22 20 12 6 5 2 5 4 7 6 5 4 4 5 6 7 4 2 2 3 7 6 5 5 6 1 4 4 7 6 12 16 16 16 13 13 11
22 23 23 24 25 26 23 22 19 9 3 1 1 2 8 7 5 7 9 3 5 2 5 4 3 3 5 4 5 7 2 3 10 2 1 4 6 4 11 13 12 14 13 12 9
23 24 24 24 24 25 23 17 1 4 5 4 2 3 5 1 4 4 8 8 2 5 5 7 5 3 4 4 3 1 4 4 6 5 2 2 4 1 8 10 10 9 10 10 11
22 24 24 24 23 23 21 3 6 3 3 4 2 3 5 9 4 3 5 6 2 7 2 4 5 2 3 2 4 2 2 4 5 5 2 3 2 3 8 6 9 10 10 9 11
22 23 24 23 23 15 9 6 6 3 7 6 6 6 10 2 4 3 9 4 3 2 2 6 2 5 2 3 1 2 3 5 6 3 3 4 1 2 6 10 12 11 11 9 6
22 23 24 23 16 4 5 5 13 3 1 8 5 5 5 11 7 6 7 3 3 4 3 4 3 3 3 3 2 3 4 3 4 5 3 3 7 5 2 6 6 6 8 7 10
22 22 23 23 3 12 2 11 13 9 5 7 4 7 5 7 4 11 12 6 1 7 7 4 5 2 2 4 6 1 5 1 2 4 1 5 3 6 5 8 7 4 7 5 15
23 21 19 17 13 4 6 16 3 3 3 3 3 2 1 9 4 3 6 4 7 5 5 5 2 1 3 4 5 6 3 2 3 3 3 6 4 7 5 6 6 6 9 15 14
22 21 17 9 9 6 10 11 3 5 6 6 0 2 4 2 2 3 3 3 4 3 1 6 3 3 5 1 4 6 5 8 4 3 4 4 4 6 3 5 6 6 11 15 14
24 18 15 9 2 4 13 3 5 4 5 5 2 2 2 2 3 3 5 4 5 4 2 3 3 3 3 2 3 6 6 3 4 5 5 3 1 8 6 4 6 9 9 11 12
22 16 11 11 3 3 2 5 3 5 5 5 4 2 6 6 3 5 5 5 3 4 3 4 4 4 3 4 6 2 7 6 3 2 4 4 2 5 4 5 3 6 7 9 11
19 8 6 2 10 4 5 3 7 6 3 6 7 1 3 2 4 3 7 6 8 8 6 4 4 3 3 3 6 3 2 4 8 3 3 3 6 5 4 3 4 5 5 6 5
12 6 4 5 8 5 4 6 4 4 5 2 2 1 1 2 4 7 7 5 5 10 6 5 0 2 2 4 5 4 6 4 3 3 2 4 4 5 5 8 5 5 4 3 2
4 3 10 8 3 5 4 6 4 6 4 1 2 3 4 2 5 4 8 5 6 4 6 5 2 5 1 1 5 2 3 7 5 4 5 1 6 6 4 3 4 6 6 6 6
3 3 5 2 4 1 3 4 4 4 2 3 1 4 4 3 3 5 9 6 5 8 10 7 4 4 8 2 1 1 5 6 5 3 1 3 5 2 5 7 8 10 7 3 5
2 1 1 4 2 2 4 4 3 2 3 2 3 5 1 3 3 3 4 2 3 9 10 7 0 2 8 5 3 5 3 5 6 4 4 5 5 4 3 4 8 5 4 4 4
2 2 4 4 1 3 2 4 4 3 5 4 4 2 2 2 1 3 3 2 4 2 3 10 4 7 6 7 5 3 4 4 5 4 5 5 5 5 7 8 6 3 3 2 3
3 1 3 2 2 2 1 3 3 5 3 3 3 6 3 2 3 3 2 5 4 6 4 4 7 5 2 5 3 6 5 6 4 6 5 4 6 8 7 8 4 5 2 2 5
3 2 3 1 3 1 2 2 3 4 5 4 4 6 6 6 6 2 1 2 1 5 4 2 3 4 3 2 5 5 2 6 4 4 2 3 6 6 4 4 1 6 5 2 2
5 3 2 2 4 1 2 3 4 3 7 7 4 2 4 4 3 1 2 1 3 2 2 3 5 3 4 2 3 3 1 2 3 0 1 5 4 5 5 3 3 6 2 6 6
Wind_Direction
6 2 360 358 356 355 352 354 352 348 347 347 344 342 338 329 325 318 263 254 284 315 320 326 0 1 66 73 83 108 63 151 197 172 167 165 120 162 41 123 137 332 146 157 147
4 0 355 355 350 349 348 351 349 343 346 345 342 341 338 337 338 287 284 267 286 311 322 15 8 352 31 61 35 83 109 220 177 179 172 159 148 156 130 160 57 60 86 128 143
358 355 351 350 347 345 346 348 345 340 341 343 341 341 338 344 335 270 329 261 293 322 307 331 330 40 59 6 49 147 181 237 174 218 132 157 161 152 138 236 195 167 150 149 153
354 353 348 346 344 343 342 343 339 336 336 339 339 341 338 1 113 9 337 15 14 43 348 350 349 63 60 22 3 3 231 195 298 122 166 192 138 155 168 241 164 162 155 155 166
353 347 345 341 342 338 337 337 332 332 331 334 335 342 353 7 259 337 335 96 114 15 3 13 32 80 52 334 353 165 286 227 199 240 234 151 181 171 216 77 125 143 155 170 176
351 344 342 341 339 335 333 331 329 324 324 326 326 342 17 325 318 328 303 170 288 12 339 326 337 314 90 356 98 318 296 293 348 271 246 152 146 144 153 138 138 157 170 170 185
350 345 341 337 334 332 329 327 323 319 316 311 316 344 62 238 302 290 263 250 274 290 328 303 326 30 148 336 323 286 351 351 234 207 177 119 85 230 153 156 158 170 178 175 188
348 345 340 336 334 329 324 324 321 315 308 290 313 19 249 275 295 246 245 273 259 289 270 305 294 55 35 318 15 28 49 9 300 100 219 119 254 214 167 159 179 179 180 183 190
346 343 339 337 333 327 324 325 318 320 307 276 85 75 273 302 277 257 231 260 309 324 276 269 71 75 19 70 22 2 318 336 321 333 132 147 251 249 168 171 184 186 187 189 188
343 342 339 338 334 327 329 325 359 52 80 96 86 29 284 246 308 261 222 231 354 338 20 45 51 67 42 74 188 297 337 314 247 298 287 180 311 105 181 187 190 193 193 191 191
340 339 338 337 334 332 344 28 17 346 3 221 199 255 274 313 307 257 189 132 97 47 54 359 57 195 212 182 116 133 223 251 262 281 267 245 225 229 193 205 198 197 195 194 202
339 338 337 337 333 339 10 81 97 256 309 263 237 260 260 283 307 306 161 125 116 182 17 16 243 218 214 220 206 198 257 282 292 335 141 7 325 320 186 227 221 194 194 195 143
339 338 338 339 332 25 7 91 337 170 194 293 218 211 205 154 208 251 141 138 134 146 157 160 225 84 199 246 230 236 192 235 218 341 38 10 349 343 0 309 257 205 169 181 182
339 339 339 342 8 343 309 337 344 160 45 279 275 268 161 155 255 211 174 148 154 189 169 220 260 230 303 255 143 266 216 202 40 51 292 32 269 294 308 316 350 21 160 70 71
338 336 335 334 312 291 322 336 44 113 357 250 231 350 134 159 172 205 171 64 165 185 112 242 212 326 348 207 171 221 118 57 72 84 73 7 78 269 341 338 9 38 81 97 109
335 330 323 321 305 278 320 337 95 47 254 328 23 160 133 245 164 81 130 77 151 168 336 238 274 247 214 9 161 139 77 47 54 73 49 304 120 297 338 297 310 89 114 124 131
333 321 305 283 256 308 331 42 55 145 328 321 332 54 143 203 197 113 148 167 159 109 269 317 230 268 191 132 64 77 59 359 2 16 206 303 66 240 301 314 241 150 166 146 134
333 320 293 262 258 281 355 56 159 230 258 299 322 286 191 160 194 169 130 184 214 101 118 144 315 197 174 185 170 84 140 146 192 187 265 302 298 280 303 294 263 217 134 124 155
338 322 287 305 216 213 77 100 205 213 284 329 322 19 335 260 170 146 176 199 201 166 168 145 271 297 229 158 121 177 118 159 104 8 60 280 292 309 27 1 338 356 102 123 107
341 334 332 318 160 139 82 220 229 231 318 348 298 354 333 290 163 157 179 210 209 186 148 211 23 239 271 104 44 159 151 78 15 148 220 291 284 240 258 216 241 236 182 265 282
8 51 356 133 124 53 165 226 261 255 244 273 274 304 267 256 189 207 200 245 209 147 121 131 102 286 1 83 182 116 99 54 112 106 153 171 269 219 254 290 202 248 230 232 250
34 54 17 84 55 17 161 206 279 281 324 310 246 231 253 300 257 219 207 232 141 147 156 188 153 204 239 270 230 201 133 133 119 217 84 145 272 309 257 209 194 208 230 218 267
77 251 115 351 123 305 294 284 262 273 260 265 270 222 44 295 308 215 212 248 359 155 165 182 148 29 347 1 20 84 84 101 107 93 184 123 268 310 282 250 237 229 239 289 324
72 56 337 52 132 128 350 280 276 239 254 231 259 227 333 303 14 283 311 5 359 148 97 107 125 158 186 204 148 132 156 177 119 106 169 214 278 273 261 246 227 262 355 236 318
31 190 165 291 344 346 306 296 297 324 266 223 272 224 184 260 318 297 323 329 33 353 69 111 181 169 261 216 151 153 175 167 129 159 130 226 208 260 238 235 206 140 171 128 126
81 39 356 314 302 318 178 266 239 261 226 274 218 274 178 190 193 243 337 8 279 336 79 19 179 134 40 67 158 120 147 140 75 113 304 173 263 239 326 324 17 157 192 74 106
28 26 105 323 346 7 256 288 264 349 269 236 262 204 170 207 196 270 183 317 318 233 110 82 124 79 182 335 88 24 90 101 108 128 121 185 269 348 10 62 300 304 354 302 189